Year,Month,Day,Hour,Minute,Value (Times are PST for temperature in C)
2018,08,13,00,00,13.50
2018,08,13,00,01,13.50
2018,08,13,00,02,13.40
2018,08,13,00,03,13.40
2018,08,13,00,04,13.40
2018,08,13,00,05,13.40
2018,08,13,00,06,13.40
2018,08,13,00,07,13.40
2018,08,13,00,08,13.40
2018,08,13,00,09,13.30
2018,08,13,00,10,13.30
2018,08,13,00,11,13.30
2018,08,13,00,12,13.30
2018,08,13,00,13,13.30
2018,08,13,00,14,13.30
2018,08,13,00,15,13.30
2018,08,13,00,16,13.30
2018,08,13,00,17,13.30
2018,08,13,00,18,13.20
2018,08,13,00,19,13.20
2018,08,13,00,20,13.20
2018,08,13,00,21,13.20
2018,08,13,00,22,13.10
2018,08,13,00,23,13.10
2018,08,13,00,24,13.00
2018,08,13,00,25,13.00
2018,08,13,00,26,13.00
2018,08,13,00,27,13.00
2018,08,13,00,28,12.90
2018,08,13,00,29,12.90
2018,08,13,00,30,12.90
2018,08,13,00,31,12.90
2018,08,13,00,32,12.90
2018,08,13,00,33,12.90
2018,08,13,00,34,12.90
2018,08,13,00,35,12.90
2018,08,13,00,36,12.90
2018,08,13,00,37,12.90
2018,08,13,00,38,12.90
2018,08,13,00,39,12.90
2018,08,13,00,40,12.90
2018,08,13,00,41,12.90
2018,08,13,00,42,12.90
2018,08,13,00,43,12.90
2018,08,13,00,44,12.90
2018,08,13,00,45,12.90
2018,08,13,00,46,12.90
2018,08,13,00,47,12.90
2018,08,13,00,48,12.90
2018,08,13,00,49,12.90
2018,08,13,00,50,12.90
2018,08,13,00,51,12.90
2018,08,13,00,52,12.90
2018,08,13,00,53,12.90
2018,08,13,00,54,12.90
2018,08,13,00,55,12.90
2018,08,13,00,56,12.90
2018,08,13,00,57,12.90
2018,08,13,00,58,12.90
2018,08,13,00,59,12.90
2018,08,13,01,00,12.90
2018,08,13,01,01,13.00
2018,08,13,01,02,13.00
2018,08,13,01,03,13.00
2018,08,13,01,04,13.00
2018,08,13,01,05,12.90
2018,08,13,01,06,12.90
2018,08,13,01,07,12.90
2018,08,13,01,08,12.90
2018,08,13,01,09,12.90
2018,08,13,01,10,12.80
2018,08,13,01,11,12.80
2018,08,13,01,12,12.80
2018,08,13,01,13,12.80
2018,08,13,01,14,12.80
2018,08,13,01,15,12.80
2018,08,13,01,16,12.80
2018,08,13,01,17,12.80
2018,08,13,01,18,12.80
2018,08,13,01,19,12.80
2018,08,13,01,20,12.80
2018,08,13,01,21,12.80
2018,08,13,01,22,12.80
2018,08,13,01,23,12.80
2018,08,13,01,24,12.80
2018,08,13,01,25,12.80
2018,08,13,01,26,12.80
2018,08,13,01,27,12.80
2018,08,13,01,28,12.80
2018,08,13,01,29,12.80
2018,08,13,01,30,12.80
2018,08,13,01,31,12.80
2018,08,13,01,32,12.80
2018,08,13,01,33,12.80
2018,08,13,01,34,12.80
2018,08,13,01,35,12.80
2018,08,13,01,36,12.80
2018,08,13,01,37,12.80
2018,08,13,01,38,12.80
2018,08,13,01,39,12.80
2018,08,13,01,40,12.90
2018,08,13,01,41,12.90
2018,08,13,01,42,12.90
2018,08,13,01,43,12.90
2018,08,13,01,44,12.90
2018,08,13,01,45,12.90
2018,08,13,01,46,12.90
2018,08,13,01,47,12.90
2018,08,13,01,48,12.90
2018,08,13,01,49,12.90
2018,08,13,01,50,12.90
2018,08,13,01,51,12.90
2018,08,13,01,52,12.90
2018,08,13,01,53,12.90
2018,08,13,01,54,12.90
2018,08,13,01,55,12.80
2018,08,13,01,56,12.80
2018,08,13,01,57,12.80
2018,08,13,01,58,12.80
2018,08,13,01,59,12.80
2018,08,13,02,00,12.80
2018,08,13,02,01,12.80
2018,08,13,02,02,12.80
2018,08,13,02,03,12.80
2018,08,13,02,04,12.80
2018,08,13,02,05,12.90
2018,08,13,02,06,12.90
2018,08,13,02,07,12.90
2018,08,13,02,08,12.90
2018,08,13,02,09,12.90
2018,08,13,02,10,12.90
2018,08,13,02,11,13.00
2018,08,13,02,12,13.00
2018,08,13,02,13,13.00
2018,08,13,02,14,13.00
2018,08,13,02,15,13.00
2018,08,13,02,16,13.00
2018,08,13,02,17,13.00
2018,08,13,02,18,13.00
2018,08,13,02,19,13.00
2018,08,13,02,20,13.00
2018,08,13,02,21,13.00
2018,08,13,02,22,13.00
2018,08,13,02,23,13.00
2018,08,13,02,24,13.00
2018,08,13,02,25,13.00
2018,08,13,02,26,13.00
2018,08,13,02,27,13.00
2018,08,13,02,28,13.00
2018,08,13,02,29,13.00
2018,08,13,02,30,13.00
2018,08,13,02,31,13.00
2018,08,13,02,32,13.10
2018,08,13,02,33,13.10
2018,08,13,02,34,13.10
2018,08,13,02,35,13.10
2018,08,13,02,36,13.20
2018,08,13,02,37,13.20
2018,08,13,02,38,13.20
2018,08,13,02,39,13.30
2018,08,13,02,40,13.30
2018,08,13,02,41,13.30
2018,08,13,02,42,13.30
2018,08,13,02,43,13.30
2018,08,13,02,44,13.30
2018,08,13,02,45,13.30
2018,08,13,02,46,13.30
2018,08,13,02,47,13.30
2018,08,13,02,48,13.30
2018,08,13,02,49,13.30
2018,08,13,02,50,13.30
2018,08,13,02,51,13.30
2018,08,13,02,52,13.40
2018,08,13,02,53,13.40
2018,08,13,02,54,13.40
2018,08,13,02,55,13.40
2018,08,13,02,56,13.40
2018,08,13,02,57,13.40
2018,08,13,02,58,13.40
2018,08,13,02,59,13.40
2018,08,13,03,00,13.40
2018,08,13,03,01,13.40
2018,08,13,03,02,13.40
2018,08,13,03,03,13.40
2018,08,13,03,04,13.40
2018,08,13,03,05,13.40
2018,08,13,03,06,13.40
2018,08,13,03,07,13.40
2018,08,13,03,08,13.50
2018,08,13,03,09,13.50
2018,08,13,03,10,13.50
2018,08,13,03,11,13.50
2018,08,13,03,12,13.50
2018,08,13,03,13,13.50
2018,08,13,03,14,13.50
2018,08,13,03,15,13.50
2018,08,13,03,16,13.50
2018,08,13,03,17,13.50
2018,08,13,03,18,13.50
2018,08,13,03,19,13.50
2018,08,13,03,20,13.50
2018,08,13,03,21,13.50
2018,08,13,03,22,13.50
2018,08,13,03,23,13.50
2018,08,13,03,24,13.40
2018,08,13,03,25,13.40
2018,08,13,03,26,13.40
2018,08,13,03,27,13.40
2018,08,13,03,28,13.40
2018,08,13,03,29,13.30
2018,08,13,03,30,13.30
2018,08,13,03,31,13.30
2018,08,13,03,32,13.20
2018,08,13,03,33,13.20
2018,08,13,03,34,13.20
2018,08,13,03,35,13.20
2018,08,13,03,36,13.10
2018,08,13,03,37,13.10
2018,08,13,03,38,13.10
2018,08,13,03,39,13.10
2018,08,13,03,40,13.10
2018,08,13,03,41,13.00
2018,08,13,03,42,13.00
2018,08,13,03,43,13.00
2018,08,13,03,44,13.00
2018,08,13,03,45,12.90
2018,08,13,03,46,12.90
2018,08,13,03,47,12.90
2018,08,13,03,48,12.90
2018,08,13,03,49,12.90
2018,08,13,03,50,12.80
2018,08,13,03,51,12.80
2018,08,13,03,52,12.80
2018,08,13,03,53,12.80
2018,08,13,03,54,12.80
2018,08,13,03,55,12.80
2018,08,13,03,56,12.80
2018,08,13,03,57,12.80
2018,08,13,03,58,12.80
2018,08,13,03,59,12.70
2018,08,13,04,00,12.70
2018,08,13,04,01,12.70
2018,08,13,04,02,12.70
2018,08,13,04,03,12.70
2018,08,13,04,04,12.60
2018,08,13,04,05,12.60
2018,08,13,04,06,12.60
2018,08,13,04,07,12.70
2018,08,13,04,08,12.70
2018,08,13,04,09,12.80
2018,08,13,04,10,12.80
2018,08,13,04,11,12.80
2018,08,13,04,12,12.90
2018,08,13,04,13,12.90
2018,08,13,04,14,13.00
2018,08,13,04,15,13.00
2018,08,13,04,16,13.00
2018,08,13,04,17,13.10
2018,08,13,04,18,13.10
2018,08,13,04,19,13.10
2018,08,13,04,20,13.10
2018,08,13,04,21,13.10
2018,08,13,04,22,13.10
2018,08,13,04,23,13.00
2018,08,13,04,24,13.00
2018,08,13,04,25,13.00
2018,08,13,04,26,12.90
2018,08,13,04,27,12.90
2018,08,13,04,28,12.80
2018,08,13,04,29,12.80
2018,08,13,04,30,12.80
2018,08,13,04,31,12.70
2018,08,13,04,32,12.70
2018,08,13,04,33,12.70
2018,08,13,04,34,12.70
2018,08,13,04,35,12.70
2018,08,13,04,36,12.60
2018,08,13,04,37,12.60
2018,08,13,04,38,12.60
2018,08,13,04,39,12.60
2018,08,13,04,40,12.50
2018,08,13,04,41,12.50
2018,08,13,04,42,12.50
2018,08,13,04,43,12.50
2018,08,13,04,44,12.50
2018,08,13,04,45,12.50
2018,08,13,04,46,12.50
2018,08,13,04,47,12.50
2018,08,13,04,48,12.50
2018,08,13,04,49,12.50
2018,08,13,04,50,12.50
2018,08,13,04,51,12.50
2018,08,13,04,52,12.40
2018,08,13,04,53,12.40
2018,08,13,04,54,12.40
2018,08,13,04,55,12.40
2018,08,13,04,56,12.30
2018,08,13,04,57,12.30
2018,08,13,04,58,12.30
2018,08,13,04,59,12.30
2018,08,13,05,00,12.30
2018,08,13,05,01,12.30
2018,08,13,05,02,12.30
2018,08,13,05,03,12.30
2018,08,13,05,04,12.30
2018,08,13,05,05,12.20
2018,08,13,05,06,12.20
2018,08,13,05,07,12.20
2018,08,13,05,08,12.10
2018,08,13,05,09,12.10
2018,08,13,05,10,12.00
2018,08,13,05,11,12.00
2018,08,13,05,12,12.00
2018,08,13,05,13,11.90
2018,08,13,05,14,11.90
2018,08,13,05,15,11.90
2018,08,13,05,16,11.80
2018,08,13,05,17,11.80
2018,08,13,05,18,11.80
2018,08,13,05,19,11.80
2018,08,13,05,20,11.80
2018,08,13,05,21,11.80
2018,08,13,05,22,11.80
2018,08,13,05,23,11.90
2018,08,13,05,24,11.90
2018,08,13,05,25,12.00
2018,08,13,05,26,12.00
2018,08,13,05,27,12.00
2018,08,13,05,28,12.00
2018,08,13,05,29,12.00
2018,08,13,05,30,12.00
2018,08,13,05,31,12.00
2018,08,13,05,32,12.00
2018,08,13,05,33,12.00
2018,08,13,05,34,12.00
2018,08,13,05,35,12.00
2018,08,13,05,36,12.00
2018,08,13,05,37,12.00
2018,08,13,05,38,11.90
2018,08,13,05,39,11.90
2018,08,13,05,40,11.90
2018,08,13,05,41,11.80
2018,08,13,05,42,11.80
2018,08,13,05,43,11.80
2018,08,13,05,44,11.80
2018,08,13,05,45,11.70
2018,08,13,05,46,11.70
2018,08,13,05,47,11.70
2018,08,13,05,48,11.70
2018,08,13,05,49,11.60
2018,08,13,05,50,11.60
2018,08,13,05,51,11.60
2018,08,13,05,52,11.60
2018,08,13,05,53,11.60
2018,08,13,05,54,11.50
2018,08,13,05,55,11.40
2018,08,13,05,56,11.40
2018,08,13,05,57,11.40
2018,08,13,05,58,11.40
2018,08,13,05,59,11.40
2018,08,13,06,00,11.40
2018,08,13,06,01,11.40
2018,08,13,06,02,11.40
2018,08,13,06,03,11.40
2018,08,13,06,04,11.40
2018,08,13,06,05,11.30
2018,08,13,06,06,11.30
2018,08,13,06,07,11.30
2018,08,13,06,08,11.30
2018,08,13,06,09,11.20
2018,08,13,06,10,11.20
2018,08,13,06,11,11.20
2018,08,13,06,12,11.20
2018,08,13,06,13,11.20
2018,08,13,06,14,11.20
2018,08,13,06,15,11.20
2018,08,13,06,16,11.20
2018,08,13,06,17,11.20
2018,08,13,06,18,11.20
2018,08,13,06,19,11.30
2018,08,13,06,20,11.30
2018,08,13,06,21,11.30
2018,08,13,06,22,11.40
2018,08,13,06,23,11.40
2018,08,13,06,24,11.40
2018,08,13,06,25,11.40
2018,08,13,06,26,11.40
2018,08,13,06,27,11.40
2018,08,13,06,28,11.40
2018,08,13,06,29,11.40
2018,08,13,06,30,11.40
2018,08,13,06,31,11.40
2018,08,13,06,32,11.40
2018,08,13,06,33,11.40
2018,08,13,06,34,11.40
2018,08,13,06,35,11.40
2018,08,13,06,36,11.40
2018,08,13,06,37,11.40
2018,08,13,06,38,11.40
2018,08,13,06,39,11.40
2018,08,13,06,40,11.40
2018,08,13,06,41,11.40
2018,08,13,06,42,11.40
2018,08,13,06,43,11.50
2018,08,13,06,44,11.60
2018,08,13,06,45,11.60
2018,08,13,06,46,11.60
2018,08,13,06,47,11.60
2018,08,13,06,48,11.60
2018,08,13,06,49,11.60
2018,08,13,06,50,11.60
2018,08,13,06,51,11.60
2018,08,13,06,52,11.60
2018,08,13,06,53,11.60
2018,08,13,06,54,11.60
2018,08,13,06,55,11.60
2018,08,13,06,56,11.60
2018,08,13,06,57,11.60
2018,08,13,06,58,11.60
2018,08,13,06,59,11.60
2018,08,13,07,00,11.60
2018,08,13,07,01,11.60
2018,08,13,07,02,11.70
2018,08,13,07,03,11.70
2018,08,13,07,04,11.70
2018,08,13,07,05,11.70
2018,08,13,07,06,11.80
2018,08,13,07,07,11.80
2018,08,13,07,08,11.80
2018,08,13,07,09,11.80
2018,08,13,07,10,11.80
2018,08,13,07,11,11.80
2018,08,13,07,12,11.80
2018,08,13,07,13,11.80
2018,08,13,07,14,11.90
2018,08,13,07,15,11.90
2018,08,13,07,16,12.00
2018,08,13,07,17,12.00
2018,08,13,07,18,12.00
2018,08,13,07,19,12.10
2018,08,13,07,20,12.10
2018,08,13,07,21,12.20
2018,08,13,07,22,12.20
2018,08,13,07,23,12.20
2018,08,13,07,24,12.30
2018,08,13,07,25,12.30
2018,08,13,07,26,12.30
2018,08,13,07,27,12.30
2018,08,13,07,28,12.30
2018,08,13,07,29,12.40
2018,08,13,07,30,12.40
2018,08,13,07,31,12.50
2018,08,13,07,32,12.50
2018,08,13,07,33,12.50
2018,08,13,07,34,12.60
2018,08,13,07,35,12.60
2018,08,13,07,36,12.70
2018,08,13,07,37,12.70
2018,08,13,07,38,12.80
2018,08,13,07,39,12.80
2018,08,13,07,40,12.80
2018,08,13,07,41,12.90
2018,08,13,07,42,12.90
2018,08,13,07,43,13.00
2018,08,13,07,44,13.00
2018,08,13,07,45,13.10
2018,08,13,07,46,13.20
2018,08,13,07,47,13.20
2018,08,13,07,48,13.30
2018,08,13,07,49,13.30
2018,08,13,07,50,13.30
2018,08,13,07,51,13.40
2018,08,13,07,52,13.40
2018,08,13,07,53,13.50
2018,08,13,07,54,13.50
2018,08,13,07,55,13.60
2018,08,13,07,56,13.60
2018,08,13,07,57,13.70
2018,08,13,07,58,13.70
2018,08,13,07,59,13.70
2018,08,13,08,00,13.80
2018,08,13,08,01,13.80
2018,08,13,08,02,13.90
2018,08,13,08,03,13.90
2018,08,13,08,04,14.00
2018,08,13,08,05,14.00
2018,08,13,08,06,14.10
2018,08,13,08,07,14.20
2018,08,13,08,08,14.20
2018,08,13,08,09,14.20
2018,08,13,08,10,14.30
2018,08,13,08,11,14.40
2018,08,13,08,12,14.50
2018,08,13,08,13,14.60
2018,08,13,08,14,14.70
2018,08,13,08,15,14.80
2018,08,13,08,16,14.80
2018,08,13,08,17,14.90
2018,08,13,08,18,15.00
2018,08,13,08,19,15.10
2018,08,13,08,20,15.20
2018,08,13,08,21,15.30
2018,08,13,08,22,15.30
2018,08,13,08,23,15.40
2018,08,13,08,24,15.50
2018,08,13,08,25,15.50
2018,08,13,08,26,15.50
2018,08,13,08,27,15.60
2018,08,13,08,28,15.60
2018,08,13,08,29,15.70
2018,08,13,08,30,15.70
2018,08,13,08,31,15.80
2018,08,13,08,32,15.80
2018,08,13,08,33,15.90
2018,08,13,08,34,15.90
2018,08,13,08,35,15.90
2018,08,13,08,36,15.90
2018,08,13,08,37,16.00
2018,08,13,08,38,16.10
2018,08,13,08,39,16.10
2018,08,13,08,40,16.10
2018,08,13,08,41,16.10
2018,08,13,08,42,16.20
2018,08,13,08,43,16.20
2018,08,13,08,44,16.30
2018,08,13,08,45,16.40
2018,08,13,08,46,16.40
2018,08,13,08,47,16.60
2018,08,13,08,48,16.70
2018,08,13,08,49,16.80
2018,08,13,08,50,16.80
2018,08,13,08,51,16.90
2018,08,13,08,52,17.00
2018,08,13,08,53,17.00
2018,08,13,08,54,17.10
2018,08,13,08,55,17.10
2018,08,13,08,56,17.20
2018,08,13,08,57,17.30
2018,08,13,08,58,17.30
2018,08,13,08,59,17.40
2018,08,13,09,00,17.50
2018,08,13,09,01,17.50
2018,08,13,09,02,17.60
2018,08,13,09,03,17.60
2018,08,13,09,04,17.60
2018,08,13,09,05,17.60
2018,08,13,09,06,17.70
2018,08,13,09,07,17.80
2018,08,13,09,08,17.80
2018,08,13,09,09,17.90
2018,08,13,09,10,18.00
2018,08,13,09,11,18.10
2018,08,13,09,12,18.10
2018,08,13,09,13,18.20
2018,08,13,09,14,18.20
2018,08,13,09,15,18.30
2018,08,13,09,16,18.30
2018,08,13,09,17,18.40
2018,08,13,09,18,18.40
2018,08,13,09,19,18.50
2018,08,13,09,20,18.60
2018,08,13,09,21,18.60
2018,08,13,09,22,18.70
2018,08,13,09,23,18.70
2018,08,13,09,24,18.70
2018,08,13,09,25,18.80
2018,08,13,09,26,18.80
2018,08,13,09,27,18.90
2018,08,13,09,28,18.90
2018,08,13,09,29,18.90
2018,08,13,09,30,18.90
2018,08,13,09,31,19.00
2018,08,13,09,32,19.10
2018,08,13,09,33,19.10
2018,08,13,09,34,19.20
2018,08,13,09,35,19.30
2018,08,13,09,36,19.30
2018,08,13,09,37,19.40
2018,08,13,09,38,19.50
2018,08,13,09,39,19.50
2018,08,13,09,40,19.60
2018,08,13,09,41,19.60
2018,08,13,09,42,19.70
2018,08,13,09,43,19.80
2018,08,13,09,44,19.80
2018,08,13,09,45,19.90
2018,08,13,09,46,19.90
2018,08,13,09,47,19.90
2018,08,13,09,48,19.80
2018,08,13,09,49,19.80
2018,08,13,09,50,19.70
2018,08,13,09,51,19.70
2018,08,13,09,52,19.60
2018,08,13,09,53,19.60
2018,08,13,09,54,19.70
2018,08,13,09,55,19.70
2018,08,13,09,56,19.70
2018,08,13,09,57,19.80
2018,08,13,09,58,19.80
2018,08,13,09,59,19.90
2018,08,13,10,00,20.00
2018,08,13,10,01,20.10
2018,08,13,10,02,20.10
2018,08,13,10,03,20.10
2018,08,13,10,04,20.10
2018,08,13,10,05,20.20
2018,08,13,10,06,20.20
2018,08,13,10,07,20.30
2018,08,13,10,08,20.40
2018,08,13,10,09,20.50
2018,08,13,10,10,20.60
2018,08,13,10,11,20.60
2018,08,13,10,12,20.60
2018,08,13,10,13,20.60
2018,08,13,10,14,20.60
2018,08,13,10,15,20.50
2018,08,13,10,16,20.40
2018,08,13,10,17,20.40
2018,08,13,10,18,20.40
2018,08,13,10,19,20.40
2018,08,13,10,20,20.50
2018,08,13,10,21,20.50
2018,08,13,10,22,20.50
2018,08,13,10,23,20.50
2018,08,13,10,24,20.50
2018,08,13,10,25,20.50
2018,08,13,10,26,20.40
2018,08,13,10,27,20.40
2018,08,13,10,28,20.50
2018,08,13,10,29,20.50
2018,08,13,10,30,20.70
2018,08,13,10,31,20.70
2018,08,13,10,32,20.70
2018,08,13,10,33,20.80
2018,08,13,10,34,20.80
2018,08,13,10,35,20.70
2018,08,13,10,36,20.70
2018,08,13,10,37,20.60
2018,08,13,10,38,20.70
2018,08,13,10,39,20.70
2018,08,13,10,40,20.80
2018,08,13,10,41,20.80
2018,08,13,10,42,20.90
2018,08,13,10,43,20.90
2018,08,13,10,44,20.90
2018,08,13,10,45,20.90
2018,08,13,10,46,21.00
2018,08,13,10,47,21.10
2018,08,13,10,48,21.10
2018,08,13,10,49,21.00
2018,08,13,10,50,21.00
2018,08,13,10,51,21.00
2018,08,13,10,52,21.00
2018,08,13,10,53,21.00
2018,08,13,10,54,21.00
2018,08,13,10,55,21.10
2018,08,13,10,56,21.20
2018,08,13,10,57,21.30
2018,08,13,10,58,21.40
2018,08,13,10,59,21.50
2018,08,13,11,00,21.60
2018,08,13,11,01,21.80
2018,08,13,11,02,21.90
2018,08,13,11,03,21.90
2018,08,13,11,04,21.80
2018,08,13,11,05,21.80
2018,08,13,11,06,21.80
2018,08,13,11,07,21.80
2018,08,13,11,08,21.90
2018,08,13,11,09,22.00
2018,08,13,11,10,22.10
2018,08,13,11,11,22.10
2018,08,13,11,12,22.10
2018,08,13,11,13,21.90
2018,08,13,11,14,21.70
2018,08,13,11,15,21.60
2018,08,13,11,16,21.60
2018,08,13,11,17,21.60
2018,08,13,11,18,21.70
2018,08,13,11,19,21.60
2018,08,13,11,20,21.50
2018,08,13,11,21,21.40
2018,08,13,11,22,21.30
2018,08,13,11,23,21.30
2018,08,13,11,24,21.30
2018,08,13,11,25,21.30
2018,08,13,11,26,21.20
2018,08,13,11,27,21.20
2018,08,13,11,28,21.20
2018,08,13,11,29,21.20
2018,08,13,11,30,21.20
2018,08,13,11,31,21.20
2018,08,13,11,32,21.30
2018,08,13,11,33,21.30
2018,08,13,11,34,21.30
2018,08,13,11,35,21.20
2018,08,13,11,36,21.20
2018,08,13,11,37,21.30
2018,08,13,11,38,21.30
2018,08,13,11,39,21.40
2018,08,13,11,40,21.40
2018,08,13,11,41,21.40
2018,08,13,11,42,21.40
2018,08,13,11,43,21.40
2018,08,13,11,44,21.40
2018,08,13,11,45,21.30
2018,08,13,11,46,21.30
2018,08,13,11,47,21.30
2018,08,13,11,48,21.30
2018,08,13,11,49,21.30
2018,08,13,11,50,21.30
2018,08,13,11,51,21.40
2018,08,13,11,52,21.40
2018,08,13,11,53,21.40
2018,08,13,11,54,21.50
2018,08,13,11,55,21.60
2018,08,13,11,56,21.60
2018,08,13,11,57,21.60
2018,08,13,11,58,21.60
2018,08,13,11,59,21.70
2018,08,13,12,00,21.80
2018,08,13,12,01,21.90
2018,08,13,12,02,21.90
2018,08,13,12,03,22.00
2018,08,13,12,04,22.00
2018,08,13,12,05,21.90
2018,08,13,12,06,22.00
2018,08,13,12,07,22.00
2018,08,13,12,08,22.10
2018,08,13,12,09,22.00
2018,08,13,12,10,22.10
2018,08,13,12,11,22.20
2018,08,13,12,12,22.30
2018,08,13,12,13,22.20
2018,08,13,12,14,22.10
2018,08,13,12,15,22.10
2018,08,13,12,16,22.10
2018,08,13,12,17,22.10
2018,08,13,12,18,22.10
2018,08,13,12,19,22.20
2018,08,13,12,20,22.30
2018,08,13,12,21,22.30
2018,08,13,12,22,22.30
2018,08,13,12,23,22.40
2018,08,13,12,24,22.50
2018,08,13,12,25,22.60
2018,08,13,12,26,22.70
2018,08,13,12,27,22.70
2018,08,13,12,28,22.80
2018,08,13,12,29,22.90
2018,08,13,12,30,22.90
2018,08,13,12,31,22.90
2018,08,13,12,32,22.90
2018,08,13,12,33,23.00
2018,08,13,12,34,22.90
2018,08,13,12,35,22.90
2018,08,13,12,36,23.00
2018,08,13,12,37,22.90
2018,08,13,12,38,22.90
2018,08,13,12,39,22.90
2018,08,13,12,40,22.90
2018,08,13,12,41,22.80
2018,08,13,12,42,22.80
2018,08,13,12,43,22.90
2018,08,13,12,44,23.00
2018,08,13,12,45,23.10
2018,08,13,12,46,23.30
2018,08,13,12,47,23.30
2018,08,13,12,48,23.30
2018,08,13,12,49,23.40
2018,08,13,12,50,23.40
2018,08,13,12,51,23.30
2018,08,13,12,52,23.30
2018,08,13,12,53,23.20
2018,08,13,12,54,23.20
2018,08,13,12,55,23.20
2018,08,13,12,56,23.00
2018,08,13,12,57,22.90
2018,08,13,12,58,22.90
2018,08,13,12,59,22.90
2018,08,13,13,00,22.80
2018,08,13,13,01,22.70
2018,08,13,13,02,22.70
2018,08,13,13,03,22.60
2018,08,13,13,04,22.60
2018,08,13,13,05,22.60
2018,08,13,13,06,22.70
2018,08,13,13,07,22.80
2018,08,13,13,08,22.90
2018,08,13,13,09,22.90
2018,08,13,13,10,22.90
2018,08,13,13,11,23.00
2018,08,13,13,12,22.90
2018,08,13,13,13,22.90
2018,08,13,13,14,22.90
2018,08,13,13,15,22.90
2018,08,13,13,16,22.90
2018,08,13,13,17,22.90
2018,08,13,13,18,22.90
2018,08,13,13,19,22.90
2018,08,13,13,20,23.10
2018,08,13,13,21,23.20
2018,08,13,13,22,23.20
2018,08,13,13,23,23.00
2018,08,13,13,24,22.90
2018,08,13,13,25,22.90
2018,08,13,13,26,22.90
2018,08,13,13,27,22.90
2018,08,13,13,28,22.90
2018,08,13,13,29,22.90
2018,08,13,13,30,23.00
2018,08,13,13,31,23.00
2018,08,13,13,32,22.90
2018,08,13,13,33,23.00
2018,08,13,13,34,23.00
2018,08,13,13,35,23.00
2018,08,13,13,36,23.10
2018,08,13,13,37,23.10
2018,08,13,13,38,23.20
2018,08,13,13,39,23.30
2018,08,13,13,40,23.30
2018,08,13,13,41,23.30
2018,08,13,13,42,23.50
2018,08,13,13,43,23.60
2018,08,13,13,44,23.60
2018,08,13,13,45,23.60
2018,08,13,13,46,23.60
2018,08,13,13,47,23.70
2018,08,13,13,48,23.60
2018,08,13,13,49,23.50
2018,08,13,13,50,23.40
2018,08,13,13,51,23.40
2018,08,13,13,52,23.50
2018,08,13,13,53,23.70
2018,08,13,13,54,23.70
2018,08,13,13,55,23.90
2018,08,13,13,56,23.90
2018,08,13,13,57,23.90
2018,08,13,13,58,23.90
2018,08,13,13,59,23.90
2018,08,13,14,00,23.90
2018,08,13,14,01,23.80
2018,08,13,14,02,23.70
2018,08,13,14,03,23.70
2018,08,13,14,04,23.70
2018,08,13,14,05,23.70
2018,08,13,14,06,23.70
2018,08,13,14,07,23.70
2018,08,13,14,08,23.70
2018,08,13,14,09,23.80
2018,08,13,14,10,23.90
2018,08,13,14,11,24.10
2018,08,13,14,12,24.10
2018,08,13,14,13,24.10
2018,08,13,14,14,23.90
2018,08,13,14,15,23.80
2018,08,13,14,16,23.70
2018,08,13,14,17,23.70
2018,08,13,14,18,23.70
2018,08,13,14,19,23.70
2018,08,13,14,20,23.70
2018,08,13,14,21,23.70
2018,08,13,14,22,23.60
2018,08,13,14,23,23.60
2018,08,13,14,24,23.50
2018,08,13,14,25,23.50
2018,08,13,14,26,23.60
2018,08,13,14,27,23.60
2018,08,13,14,28,23.60
2018,08,13,14,29,23.60
2018,08,13,14,30,23.70
2018,08,13,14,31,23.70
2018,08,13,14,32,23.70
2018,08,13,14,33,23.70
2018,08,13,14,34,23.60
2018,08,13,14,35,23.60
2018,08,13,14,36,23.70
2018,08,13,14,37,23.70
2018,08,13,14,38,23.70
2018,08,13,14,39,23.70
2018,08,13,14,40,23.70
2018,08,13,14,41,23.70
2018,08,13,14,42,23.70
2018,08,13,14,43,23.70
2018,08,13,14,44,23.70
2018,08,13,14,45,23.70
2018,08,13,14,46,23.80
2018,08,13,14,47,23.80
2018,08,13,14,48,23.80
2018,08,13,14,49,23.90
2018,08,13,14,50,24.00
2018,08,13,14,51,24.00
2018,08,13,14,52,24.00
2018,08,13,14,53,23.90
2018,08,13,14,54,23.80
2018,08,13,14,55,23.80
2018,08,13,14,56,23.70
2018,08,13,14,57,23.80
2018,08,13,14,58,23.90
2018,08,13,14,59,23.90
2018,08,13,15,00,23.80
2018,08,13,15,01,23.80
2018,08,13,15,02,23.70
2018,08,13,15,03,23.70
2018,08,13,15,04,23.70
2018,08,13,15,05,23.70
2018,08,13,15,06,23.70
2018,08,13,15,07,23.80
2018,08,13,15,08,23.90
2018,08,13,15,09,23.90
2018,08,13,15,10,24.10
2018,08,13,15,11,24.10
2018,08,13,15,12,24.10
2018,08,13,15,13,24.10
2018,08,13,15,14,24.00
2018,08,13,15,15,24.00
2018,08,13,15,16,24.10
2018,08,13,15,17,24.10
2018,08,13,15,18,24.20
2018,08,13,15,19,24.20
2018,08,13,15,20,24.20
2018,08,13,15,21,24.30
2018,08,13,15,22,24.30
2018,08,13,15,23,24.20
2018,08,13,15,24,24.20
2018,08,13,15,25,24.10
2018,08,13,15,26,24.00
2018,08,13,15,27,24.00
2018,08,13,15,28,24.10
2018,08,13,15,29,24.10
2018,08,13,15,30,24.10
2018,08,13,15,31,24.10
2018,08,13,15,32,24.10
2018,08,13,15,33,24.20
2018,08,13,15,34,24.20
2018,08,13,15,35,24.20
2018,08,13,15,36,24.10
2018,08,13,15,37,24.10
2018,08,13,15,38,24.10
2018,08,13,15,39,24.10
2018,08,13,15,40,24.00
2018,08,13,15,41,24.00
2018,08,13,15,42,24.10
2018,08,13,15,43,24.10
2018,08,13,15,44,24.10
2018,08,13,15,45,24.10
2018,08,13,15,46,24.10
2018,08,13,15,47,24.20
2018,08,13,15,48,24.20
2018,08,13,15,49,24.30
2018,08,13,15,50,24.40
2018,08,13,15,51,24.40
2018,08,13,15,52,24.40
2018,08,13,15,53,24.30
2018,08,13,15,54,24.20
2018,08,13,15,55,24.20
2018,08,13,15,56,24.20
2018,08,13,15,57,24.10
2018,08,13,15,58,24.00
2018,08,13,15,59,23.90
2018,08,13,16,00,23.80
2018,08,13,16,01,23.80
2018,08,13,16,02,23.80
2018,08,13,16,03,23.90
2018,08,13,16,04,23.90
2018,08,13,16,05,24.00
2018,08,13,16,06,24.10
2018,08,13,16,07,24.20
2018,08,13,16,08,24.20
2018,08,13,16,09,24.20
2018,08,13,16,10,24.10
2018,08,13,16,11,24.10
2018,08,13,16,12,24.10
2018,08,13,16,13,24.00
2018,08,13,16,14,23.90
2018,08,13,16,15,23.90
2018,08,13,16,16,23.90
2018,08,13,16,17,24.00
2018,08,13,16,18,24.10
2018,08,13,16,19,24.10
2018,08,13,16,20,24.10
2018,08,13,16,21,24.10
2018,08,13,16,22,24.20
2018,08,13,16,23,24.20
2018,08,13,16,24,24.30
2018,08,13,16,25,24.30
2018,08,13,16,26,24.40
2018,08,13,16,27,24.40
2018,08,13,16,28,24.50
2018,08,13,16,29,24.50
2018,08,13,16,30,24.60
2018,08,13,16,31,24.60
2018,08,13,16,32,24.60
2018,08,13,16,33,24.60
2018,08,13,16,34,24.60
2018,08,13,16,35,24.70
2018,08,13,16,36,24.60
2018,08,13,16,37,24.50
2018,08,13,16,38,24.50
2018,08,13,16,39,24.40
2018,08,13,16,40,24.30
2018,08,13,16,41,24.30
2018,08,13,16,42,24.30
2018,08,13,16,43,24.30
2018,08,13,16,44,24.30
2018,08,13,16,45,24.40
2018,08,13,16,46,24.30
2018,08,13,16,47,24.30
2018,08,13,16,48,24.30
2018,08,13,16,49,24.30
2018,08,13,16,50,24.30
2018,08,13,16,51,24.30
2018,08,13,16,52,24.30
2018,08,13,16,53,24.30
2018,08,13,16,54,24.30
2018,08,13,16,55,24.20
2018,08,13,16,56,24.30
2018,08,13,16,57,24.30
2018,08,13,16,58,24.30
2018,08,13,16,59,24.30
2018,08,13,17,00,24.40
2018,08,13,17,01,24.40
2018,08,13,17,02,24.50
2018,08,13,17,03,24.50
2018,08,13,17,04,24.40
2018,08,13,17,05,24.40
2018,08,13,17,06,24.40
2018,08,13,17,07,24.40
2018,08,13,17,08,24.40
2018,08,13,17,09,24.30
2018,08,13,17,10,24.30
2018,08,13,17,11,24.30
2018,08,13,17,12,24.30
2018,08,13,17,13,24.30
2018,08,13,17,14,24.30
2018,08,13,17,15,24.40
2018,08,13,17,16,24.30
2018,08,13,17,17,24.30
2018,08,13,17,18,24.30
2018,08,13,17,19,24.30